Location: Stara Lesna
(49.1528°N, 20.2911°E)
Time: 20:30:18
(UTC+02:00)

Cosmos 2278 Rocket - Pass Details

Date: 21 September 2019
Orbit: 839 x 847 km, 71.0° (Epoch: 22 October)

Event Time Altitude Azimuth Distance (km) Brightness Sun altitude
Exits shadow 02:37:05 31° 339° (NNW) 1,456 3.6 -33.2°
Drops below altitude 10° 02:40:56 10° 16° (NNE) 2,480 5.4 -32.8°
Sets 02:43:37 0° 26° (NNE) 3,420 6.4 -32.5°
